Location: Leiter
(44.7178°N, 106.2687°W)
Time: 09:33:57
(UTC+00:00)

CUBESAT XI-V - Pass Details

Date: 04 July 2022
Orbit: 668 x 690 km, 98.1° (Epoch: 14 August)

Event Time Altitude Azimuth Distance (km) Brightness Sun altitude
Exits shadow 09:40:53 21° 231° (SW) 1,488 ? -14.1°
Maximum altitude 09:42:36 27° 265° (W) 1,294 ? -13.9°
Drops below altitude 10° 09:46:30 10° 323° (NW) 2,107 ? -13.5°
Sets 09:49:03 0° 336° (NNW) 3,023 ? -13.2°
